Time,TemperatureF,DewpointF,PressureIn,WindDirection,WindDirectionDegrees,WindSpeedMPH,WindSpeedGustMPH,Humidity,HourlyPrecipIn,Conditions,Clouds,dailyrainin,SoftwareType,DateUTC
2013-07-15 00:01:00,67.9,47.4,29.94,NNE,23,2.5,3.4,48,0.00,,,0.00,WUHU216HW,2013-07-15 07:01:00,
2013-07-15 00:06:00,67.7,47.3,29.94,NNE,23,2.5,3.4,48,0.00,,,0.00,WUHU216HW,2013-07-15 07:06:00,
2013-07-15 00:11:00,67.5,46.5,29.94,NNE,23,1.8,3.4,47,0.00,,,0.00,WUHU216HW,2013-07-15 07:11:00,
2013-07-15 00:16:00,67.3,47.0,29.94,NNE,23,2.0,3.4,48,0.00,,,0.00,WUHU216HW,2013-07-15 07:16:00,
2013-07-15 00:21:00,67.3,46.4,29.94,NNE,23,2.0,2.9,47,0.00,,,0.00,WUHU216HW,2013-07-15 07:21:00,
2013-07-15 00:26:00,67.1,46.2,29.94,SSW,203,0.2,3.6,47,0.00,,,0.00,WUHU216HW,2013-07-15 07:26:00,
2013-07-15 00:31:00,67.0,46.0,29.94,WNW,293,1.6,3.6,47,0.00,,,0.00,WUHU216HW,2013-07-15 07:31:00,
2013-07-15 00:36:00,66.8,45.3,29.94,North,0,0.7,3.8,46,0.00,,,0.00,WUHU216HW,2013-07-15 07:36:00,
2013-07-15 00:41:00,66.8,45.3,29.94,NNE,23,1.3,3.8,46,0.00,,,0.00,WUHU216HW,2013-07-15 07:41:00,
2013-07-15 00:46:00,66.6,45.1,29.94,North,0,1.6,3.8,46,0.00,,,0.00,WUHU216HW,2013-07-15 07:46:00,
2013-07-15 00:51:00,66.4,44.9,29.94,West,270,1.3,3.1,46,0.00,,,0.00,WUHU216HW,2013-07-15 07:51:00,
2013-07-15 00:56:00,66.4,44.4,29.93,WNW,293,1.1,4.3,45,0.00,,,0.00,WUHU216HW,2013-07-15 07:56:00,
2013-07-15 01:01:00,66.2,44.2,29.94,WSW,248,0.7,4.3,45,0.00,,,0.00,WUHU216HW,2013-07-15 08:01:00,
2013-07-15 01:06:00,66.2,44.2,29.94,ESE,113,0.4,4.0,45,0.00,,,0.00,WUHU216HW,2013-07-15 08:06:00,
2013-07-15 01:11:00,66.1,44.0,29.94,NE,45,0.7,3.8,45,0.00,,,0.00,WUHU216HW,2013-07-15 08:11:00,
2013-07-15 01:16:00,65.9,43.8,29.94,NNE,23,1.3,3.4,45,0.00,,,0.00,WUHU216HW,2013-07-15 08:16:00,
2013-07-15 01:21:00,65.9,43.8,29.94,North,0,1.8,3.1,45,0.00,,,0.00,WUHU216HW,2013-07-15 08:21:00,
2013-07-15 01:26:00,65.5,43.5,29.94,North,0,1.6,4.0,45,0.00,,,0.00,WUHU216HW,2013-07-15 08:26:00,
2013-07-15 01:31:00,65.3,43.9,29.94,North,0,0.7,5.6,46,0.00,,,0.00,WUHU216HW,2013-07-15 08:31:00,
2013-07-15 01:36:00,65.2,43.7,29.94,North,0,0.9,5.6,46,0.00,,,0.00,WUHU216HW,2013-07-15 08:36:00,
2013-07-15 01:41:00,65.0,43.6,29.94,North,0,1.3,4.7,46,0.00,,,0.00,WUHU216HW,2013-07-15 08:41:00,
2013-07-15 01:46:00,64.6,43.8,29.94,NW,315,1.3,4.7,47,0.00,,,0.00,WUHU216HW,2013-07-15 08:46:00,
2013-07-15 01:51:00,64.4,43.7,29.94,NW,315,1.8,2.9,47,0.00,,,0.00,WUHU216HW,2013-07-15 08:51:00,
2013-07-15 01:56:00,64.4,43.7,29.94,NNE,23,1.6,4.7,47,0.00,,,0.00,WUHU216HW,2013-07-15 08:56:00,
2013-07-15 02:01:00,64.1,43.3,29.93,NNE,23,0.4,4.7,47,0.00,,,0.00,WUHU216HW,2013-07-15 09:01:00,
2013-07-15 02:06:00,63.9,43.8,29.93,North,0,0.4,3.4,48,0.00,,,0.00,WUHU216HW,2013-07-15 09:06:00,
2013-07-15 02:11:00,63.7,43.6,29.93,North,0,0.0,2.0,48,0.00,,,0.00,WUHU216HW,2013-07-15 09:11:00,
2013-07-15 02:16:00,63.4,43.8,29.93,North,0,1.1,2.7,49,0.00,,,0.00,WUHU216HW,2013-07-15 09:16:00,
2013-07-15 02:21:00,63.2,43.7,29.93,NNW,338,1.8,2.7,49,0.00,,,0.00,WUHU216HW,2013-07-15 09:21:00,
2013-07-15 02:26:00,63.0,44.1,29.93,North,0,1.1,2.7,50,0.00,,,0.00,WUHU216HW,2013-07-15 09:26:00,
2013-07-15 02:31:00,62.6,44.2,29.94,West,270,1.3,3.4,51,0.00,,,0.00,WUHU216HW,2013-07-15 09:31:00,
2013-07-15 02:36:00,62.5,44.1,29.94,NW,315,1.1,3.4,51,0.00,,,0.00,WUHU216HW,2013-07-15 09:36:00,
2013-07-15 02:41:00,62.3,44.4,29.94,NNE,23,0.7,4.0,52,0.00,,,0.00,WUHU216HW,2013-07-15 09:41:00,
2013-07-15 02:46:00,61.9,44.6,29.94,North,0,1.3,4.9,53,0.00,,,0.00,WUHU216HW,2013-07-15 09:46:00,
2013-07-15 02:51:00,61.9,44.6,29.94,North,0,2.2,4.9,53,0.00,,,0.00,WUHU216HW,2013-07-15 09:51:00,
2013-07-15 02:56:00,61.7,44.4,29.94,NNE,23,0.4,2.7,53,0.00,,,0.00,WUHU216HW,2013-07-15 09:56:00,
2013-07-15 03:01:00,61.6,44.2,29.94,NNE,23,0.7,2.5,53,0.00,,,0.00,WUHU216HW,2013-07-15 10:01:00,
2013-07-15 03:06:00,61.4,44.1,29.94,North,0,0.4,1.8,53,0.00,,,0.00,WUHU216HW,2013-07-15 10:06:00,
2013-07-15 03:11:00,61.2,44.4,29.94,NNE,23,1.8,1.8,54,0.00,,,0.00,WUHU216HW,2013-07-15 10:11:00,
2013-07-15 03:16:00,61.2,44.4,29.94,NNE,23,2.5,2.7,54,0.00,,,0.00,WUHU216HW,2013-07-15 10:16:00,
2013-07-15 03:21:00,61.0,44.7,29.94,NNE,23,0.7,2.7,55,0.00,,,0.00,WUHU216HW,2013-07-15 10:21:00,
2013-07-15 03:26:00,60.8,44.1,29.94,NNE,23,0.2,2.5,54,0.00,,,0.00,WUHU216HW,2013-07-15 10:26:00,
2013-07-15 03:31:00,60.8,44.1,29.94,NNE,23,0.2,1.6,54,0.00,,,0.00,WUHU216HW,2013-07-15 10:31:00,
2013-07-15 03:36:00,60.8,44.6,29.94,NE,45,0.0,1.8,55,0.00,,,0.00,WUHU216HW,2013-07-15 10:36:00,
2013-07-15 03:41:00,60.7,43.9,29.94,ENE,68,0.0,1.8,54,0.00,,,0.00,WUHU216HW,2013-07-15 10:41:00,
2013-07-15 03:46:00,60.5,44.2,29.94,North,0,0.0,0.9,55,0.00,,,0.00,WUHU216HW,2013-07-15 10:46:00,
2013-07-15 03:51:00,60.3,44.0,29.94,North,0,0.2,0.4,55,0.00,,,0.00,WUHU216HW,2013-07-15 10:51:00,
2013-07-15 03:56:00,60.1,44.4,29.94,NNW,338,0.2,0.4,56,0.00,,,0.00,WUHU216HW,2013-07-15 10:56:00,
2013-07-15 04:01:00,59.9,44.6,29.94,North,0,0.7,1.1,57,0.00,,,0.00,WUHU216HW,2013-07-15 11:01:00,
2013-07-15 04:06:00,59.8,44.5,29.94,NNE,23,0.0,1.1,57,0.00,,,0.00,WUHU216HW,2013-07-15 11:06:00,
2013-07-15 04:11:00,59.6,44.3,29.94,NNE,23,0.4,1.1,57,0.00,,,0.00,WUHU216HW,2013-07-15 11:11:00,
2013-07-15 04:16:00,59.4,44.1,29.94,NNW,338,0.2,1.1,57,0.00,,,0.00,WUHU216HW,2013-07-15 11:16:00,
2013-07-15 04:21:00,59.2,44.5,29.94,NNE,23,0.0,1.1,58,0.00,,,0.00,WUHU216HW,2013-07-15 11:21:00,
2013-07-15 04:26:00,59.0,44.3,29.94,NNE,23,0.0,0.7,58,0.00,,,0.00,WUHU216HW,2013-07-15 11:26:00,
2013-07-15 04:31:00,59.0,44.3,29.94,WNW,293,0.2,1.1,58,0.00,,,0.00,WUHU216HW,2013-07-15 11:31:00,
2013-07-15 04:36:00,58.7,43.9,29.94,North,0,0.0,1.1,58,0.00,,,0.00,WUHU216HW,2013-07-15 11:36:00,
2013-07-15 04:41:00,58.7,43.9,29.94,NNE,23,0.0,1.1,58,0.00,,,0.00,WUHU216HW,2013-07-15 11:41:00,
2013-07-15 04:46:00,58.5,43.7,29.94,NNW,338,0.2,1.1,58,0.00,,,0.00,WUHU216HW,2013-07-15 11:46:00,
2013-07-15 04:51:00,58.3,44.1,29.94,NW,315,0.4,1.1,59,0.00,,,0.00,WUHU216HW,2013-07-15 11:51:00,
2013-07-15 04:56:00,58.3,44.6,29.94,NNW,338,0.2,1.1,60,0.00,,,0.00,WUHU216HW,2013-07-15 11:56:00,
2013-07-15 05:01:00,58.1,44.4,29.94,North,0,0.2,0.9,60,0.00,,,0.00,WUHU216HW,2013-07-15 12:01:00,
2013-07-15 05:06:00,58.0,44.2,29.94,North,0,0.2,1.6,60,0.00,,,0.00,WUHU216HW,2013-07-15 12:06:00,
2013-07-15 05:11:00,58.0,44.2,29.94,NW,315,0.2,1.6,60,0.00,,,0.00,WUHU216HW,2013-07-15 12:11:00,
2013-07-15 05:16:00,57.8,44.0,29.94,NNW,338,0.0,1.1,60,0.00,,,0.00,WUHU216HW,2013-07-15 12:16:00,
2013-07-15 05:21:00,57.8,43.6,29.94,North,0,0.0,1.1,59,0.00,,,0.00,WUHU216HW,2013-07-15 12:21:00,
2013-07-15 05:26:00,57.6,43.9,29.94,North,0,0.0,1.1,60,0.00,,,0.00,WUHU216HW,2013-07-15 12:26:00,
2013-07-15 05:31:00,57.6,43.4,29.94,NW,315,0.0,1.1,59,0.00,,,0.00,WUHU216HW,2013-07-15 12:31:00,
2013-07-15 05:36:00,57.6,43.4,29.94,NNE,23,0.0,0.9,59,0.00,,,0.00,WUHU216HW,2013-07-15 12:36:00,
2013-07-15 05:41:00,57.4,43.3,29.94,NNE,23,0.0,0.9,59,0.00,,,0.00,WUHU216HW,2013-07-15 12:41:00,
2013-07-15 05:46:00,57.2,43.1,29.94,NNE,23,0.0,0.0,59,0.00,,,0.00,WUHU216HW,2013-07-15 12:46:00,
2013-07-15 05:51:00,57.2,43.6,29.94,NNE,23,0.0,0.0,60,0.00,,,0.00,WUHU216HW,2013-07-15 12:51:00,
2013-07-15 05:56:00,57.2,43.6,29.94,NNE,23,0.0,0.0,60,0.00,,,0.00,WUHU216HW,2013-07-15 12:56:00,
2013-07-15 06:01:00,57.2,43.6,29.94,NNE,23,0.0,0.0,60,0.00,,,0.00,WUHU216HW,2013-07-15 13:01:00,
2013-07-15 06:06:00,57.2,43.9,29.94,NNE,23,0.0,0.0,61,0.00,,,0.00,WUHU216HW,2013-07-15 13:06:00,
2013-07-15 06:11:00,57.1,44.2,29.94,NNE,23,0.0,0.0,62,0.00,,,0.00,WUHU216HW,2013-07-15 13:11:00,
2013-07-15 06:16:00,57.1,44.2,29.94,NNE,23,0.0,0.0,62,0.00,,,0.00,WUHU216HW,2013-07-15 13:16:00,
2013-07-15 06:21:00,57.1,44.6,29.94,NNW,338,0.0,0.2,63,0.00,,,0.00,WUHU216HW,2013-07-15 13:21:00,
2013-07-15 06:26:00,57.2,45.2,29.94,North,0,0.0,0.4,64,0.00,,,0.00,WUHU216HW,2013-07-15 13:26:00,
2013-07-15 06:31:00,57.4,46.1,29.94,NNE,23,0.9,0.9,66,0.00,,,0.00,WUHU216HW,2013-07-15 13:31:00,
2013-07-15 06:36:00,58.0,46.6,29.94,NNW,338,0.2,1.1,66,0.00,,,0.00,WUHU216HW,2013-07-15 13:36:00,
2013-07-15 06:41:00,58.5,46.7,29.94,North,0,0.0,1.1,65,0.00,,,0.00,WUHU216HW,2013-07-15 13:41:00,
2013-07-15 06:46:00,59.8,47.5,29.94,NNW,338,0.2,0.9,64,0.00,,,0.00,WUHU216HW,2013-07-15 13:46:00,
2013-07-15 06:51:00,61.6,48.9,29.94,North,0,0.0,0.9,63,0.00,,,0.00,WUHU216HW,2013-07-15 13:51:00,
2013-07-15 06:56:00,61.9,48.3,29.94,SW,225,0.9,1.6,61,0.00,,,0.00,WUHU216HW,2013-07-15 13:56:00,
2013-07-15 07:01:00,61.6,48.4,29.94,NW,315,0.0,1.8,62,0.00,,,0.00,WUHU216HW,2013-07-15 14:01:00,
2013-07-15 07:06:00,61.9,48.8,29.94,NE,45,0.4,1.8,62,0.00,,,0.00,WUHU216HW,2013-07-15 14:06:00,
2013-07-15 07:11:00,63.2,49.5,29.94,NNE,23,0.0,1.8,61,0.00,,,0.00,WUHU216HW,2013-07-15 14:11:00,
2013-07-15 07:16:00,63.7,48.6,29.94,NNE,23,0.7,2.5,58,0.00,,,0.00,WUHU216HW,2013-07-15 14:16:00,
2013-07-15 07:21:00,62.6,49.1,29.94,NNE,23,0.2,2.5,61,0.00,,,0.00,WUHU216HW,2013-07-15 14:21:00,
2013-07-15 07:26:00,62.1,49.0,29.94,NW,315,0.7,3.6,62,0.00,,,0.00,WUHU216HW,2013-07-15 14:26:00,
2013-07-15 07:31:00,62.3,49.2,29.94,NW,315,0.0,3.6,62,0.00,,,0.00,WUHU216HW,2013-07-15 14:31:00,
2013-07-15 07:36:00,62.5,49.2,29.94,NNW,338,0.4,2.2,62,0.00,,,0.00,WUHU216HW,2013-07-15 14:36:00,
2013-07-15 07:41:00,62.6,49.4,29.94,NNE,23,0.9,3.4,62,0.00,,,0.00,WUHU216HW,2013-07-15 14:41:00,
2013-07-15 07:46:00,62.8,49.1,29.94,NNE,23,1.8,3.4,61,0.00,,,0.00,WUHU216HW,2013-07-15 14:46:00,
2013-07-15 07:51:00,62.6,49.4,29.94,North,0,1.8,2.9,62,0.00,,,0.00,WUHU216HW,2013-07-15 14:51:00,
2013-07-15 07:56:00,62.6,49.4,29.94,NW,315,0.9,4.9,62,0.00,,,0.00,WUHU216HW,2013-07-15 14:56:00,
2013-07-15 08:01:00,62.6,49.4,29.94,NW,315,2.7,4.9,62,0.00,,,0.00,WUHU216HW,2013-07-15 15:01:00,
2013-07-15 08:07:00,63.0,49.8,29.94,NNE,23,1.1,4.7,62,0.00,,,0.00,WUHU216HW,2013-07-15 15:07:00,
2013-07-15 08:12:00,63.2,50.0,29.93,WNW,293,0.2,3.4,62,0.00,,,0.00,WUHU216HW,2013-07-15 15:12:00,
2013-07-15 08:18:00,63.4,50.1,29.93,NNE,23,2.2,3.4,62,0.00,,,0.00,WUHU216HW,2013-07-15 15:18:00,
2013-07-15 08:23:00,63.7,50.4,29.93,WNW,293,0.7,4.0,62,0.00,,,0.00,WUHU216HW,2013-07-15 15:23:00,
2013-07-15 08:29:00,64.1,50.8,29.93,SE,135,0.7,2.5,62,0.00,,,0.00,WUHU216HW,2013-07-15 15:29:00,
2013-07-15 08:34:00,64.3,50.5,29.93,NNE,23,0.9,3.4,61,0.00,,,0.00,WUHU216HW,2013-07-15 15:34:00,
2013-07-15 08:39:00,64.1,51.2,29.93,NNW,338,0.9,4.3,63,0.00,,,0.00,WUHU216HW,2013-07-15 15:39:00,
2013-07-15 08:44:00,64.3,51.4,29.93,NE,45,1.1,4.3,63,0.00,,,0.00,WUHU216HW,2013-07-15 15:44:00,
2013-07-15 08:49:00,64.3,51.0,29.93,NNE,23,1.8,3.1,62,0.00,,,0.00,WUHU216HW,2013-07-15 15:49:00,
2013-07-15 08:54:00,64.4,51.1,29.93,SW,225,0.7,4.7,62,0.00,,,0.00,WUHU216HW,2013-07-15 15:54:00,
2013-07-15 09:00:00,64.8,51.0,29.93,SW,225,2.5,4.7,61,0.00,,,0.00,WUHU216HW,2013-07-15 16:00:00,
2013-07-15 09:05:00,64.8,51.0,29.93,NNE,23,1.1,4.5,61,0.00,,,0.00,WUHU216HW,2013-07-15 16:05:00,
2013-07-15 09:10:00,64.8,51.5,29.93,North,0,2.2,4.0,62,0.00,,,0.00,WUHU216HW,2013-07-15 16:10:00,
2013-07-15 09:15:00,65.2,51.8,29.93,NW,315,4.0,4.7,62,0.00,,,0.00,WUHU216HW,2013-07-15 16:15:00,
2013-07-15 09:21:00,65.3,51.6,29.93,WSW,248,1.8,4.7,61,0.00,,,0.00,WUHU216HW,2013-07-15 16:21:00,
2013-07-15 09:27:00,65.5,51.8,29.92,NNE,23,3.8,4.5,61,0.00,,,0.00,WUHU216HW,2013-07-15 16:27:00,
2013-07-15 09:32:00,65.9,52.1,29.93,NNE,23,2.9,6.0,61,0.00,,,0.00,WUHU216HW,2013-07-15 16:32:00,
2013-07-15 09:37:00,66.4,52.2,29.92,NE,45,3.6,6.0,60,0.00,,,0.00,WUHU216HW,2013-07-15 16:37:00,
2013-07-15 09:42:00,66.6,51.8,29.92,NNE,23,1.6,3.6,59,0.00,,,0.00,WUHU216HW,2013-07-15 16:42:00,
2013-07-15 09:47:00,67.0,52.2,29.92,NNW,338,3.6,4.7,59,0.00,,,0.00,WUHU216HW,2013-07-15 16:47:00,
2013-07-15 09:52:00,67.0,51.7,29.92,NNE,23,1.3,5.4,58,0.00,,,0.00,WUHU216HW,2013-07-15 16:52:00,
2013-07-15 09:57:00,67.3,52.0,29.92,NNE,23,3.4,5.4,58,0.00,,,0.00,WUHU216HW,2013-07-15 16:57:00,
2013-07-15 10:03:00,67.7,52.4,29.91,North,0,1.8,4.7,58,0.00,,,0.00,WUHU216HW,2013-07-15 17:03:00,
2013-07-15 10:08:00,68.0,52.7,29.91,NE,45,0.9,3.6,58,0.00,,,0.00,WUHU216HW,2013-07-15 17:08:00,
2013-07-15 10:13:00,68.4,52.6,29.91,NE,45,1.8,4.7,57,0.00,,,0.00,WUHU216HW,2013-07-15 17:13:00,
2013-07-15 10:18:00,68.8,52.4,29.91,North,0,2.5,5.1,56,0.00,,,0.00,WUHU216HW,2013-07-15 17:18:00,
2013-07-15 10:23:00,68.9,52.0,29.91,North,0,3.4,5.4,55,0.00,,,0.00,WUHU216HW,2013-07-15 17:23:00,
2013-07-15 10:28:00,69.1,52.8,29.91,WSW,248,1.1,5.4,56,0.00,,,0.00,WUHU216HW,2013-07-15 17:28:00,
2013-07-15 10:33:00,69.3,51.9,29.91,NW,315,2.0,6.3,54,0.00,,,0.00,WUHU216HW,2013-07-15 17:33:00,
2013-07-15 10:38:00,69.3,52.4,29.91,NNW,338,2.0,7.6,55,0.00,,,0.00,WUHU216HW,2013-07-15 17:38:00,
2013-07-15 10:43:00,69.7,52.7,29.90,NNE,23,0.7,7.6,55,0.00,,,0.00,WUHU216HW,2013-07-15 17:43:00,
2013-07-15 10:49:00,70.2,53.3,29.90,NNW,338,1.8,4.7,55,0.00,,,0.00,WUHU216HW,2013-07-15 17:49:00,
2013-07-15 10:54:00,70.6,53.1,29.90,NNE,23,2.2,5.1,54,0.00,,,0.00,WUHU216HW,2013-07-15 17:54:00,
2013-07-15 10:59:00,70.6,53.6,29.90,NNE,23,2.0,6.3,55,0.00,,,0.00,WUHU216HW,2013-07-15 17:59:00,
2013-07-15 11:04:00,70.7,53.7,29.90,NNW,338,0.9,6.3,55,0.00,,,0.00,WUHU216HW,2013-07-15 18:04:00,
2013-07-15 11:10:00,70.9,53.4,29.90,NE,45,1.1,6.3,54,0.00,,,0.00,WUHU216HW,2013-07-15 18:10:00,
2013-07-15 11:15:00,70.9,53.4,29.89,NW,315,0.4,6.3,54,0.00,,,0.00,WUHU216HW,2013-07-15 18:15:00,
2013-07-15 11:20:00,71.1,53.0,29.89,NNE,23,3.4,4.3,53,0.00,,,0.00,WUHU216HW,2013-07-15 18:20:00,
2013-07-15 11:25:00,71.5,53.9,29.89,WNW,293,0.9,4.0,54,0.00,,,0.00,WUHU216HW,2013-07-15 18:25:00,
2013-07-15 11:30:00,71.8,53.7,29.89,NNE,23,3.1,4.7,53,0.00,,,0.00,WUHU216HW,2013-07-15 18:30:00,
2013-07-15 11:35:00,72.0,53.4,29.89,ENE,68,3.1,4.9,52,0.00,,,0.00,WUHU216HW,2013-07-15 18:35:00,
2013-07-15 11:40:00,72.4,53.6,29.89,NE,45,1.6,5.8,52,0.00,,,0.00,WUHU216HW,2013-07-15 18:40:00,
2013-07-15 11:45:00,72.7,54.0,29.88,West,270,0.7,5.8,52,0.00,,,0.00,WUHU216HW,2013-07-15 18:45:00,
2013-07-15 11:50:00,72.9,53.6,29.88,North,0,3.6,5.6,51,0.00,,,0.00,WUHU216HW,2013-07-15 18:50:00,
2013-07-15 11:55:00,73.3,55.0,29.88,West,270,4.0,5.6,53,0.00,,,0.00,WUHU216HW,2013-07-15 18:55:00,
2013-07-15 12:00:00,73.8,53.4,29.88,NNE,23,4.9,6.3,49,0.00,,,0.00,WUHU216HW,2013-07-15 19:00:00,
2013-07-15 12:05:00,73.8,54.0,29.87,NNE,23,4.5,7.6,50,0.00,,,0.00,WUHU216HW,2013-07-15 19:05:00,
2013-07-15 12:10:00,74.2,54.4,29.87,ESE,113,2.5,7.6,50,0.00,,,0.00,WUHU216HW,2013-07-15 19:10:00,
2013-07-15 12:15:00,75.1,54.6,29.87,NE,45,3.4,4.9,49,0.00,,,0.00,WUHU216HW,2013-07-15 19:15:00,
2013-07-15 12:21:00,75.2,54.2,29.87,NNE,23,2.0,6.3,48,0.00,,,0.00,WUHU216HW,2013-07-15 19:21:00,
2013-07-15 12:26:00,75.8,54.1,29.87,West,270,2.9,8.3,47,0.00,,,0.00,WUHU216HW,2013-07-15 19:26:00,
2013-07-15 12:31:00,76.0,54.3,29.86,North,0,2.5,8.3,47,0.00,,,0.00,WUHU216HW,2013-07-15 19:31:00,
2013-07-15 12:36:00,76.1,54.5,29.86,North,0,1.8,5.6,47,0.00,,,0.00,WUHU216HW,2013-07-15 19:36:00,
2013-07-15 12:41:00,76.7,54.9,29.86,North,0,2.9,5.6,47,0.00,,,0.00,WUHU216HW,2013-07-15 19:41:00,
2013-07-15 12:46:00,77.0,54.6,29.87,SSW,203,2.5,4.5,46,0.00,,,0.00,WUHU216HW,2013-07-15 19:46:00,
2013-07-15 12:51:00,77.2,54.8,29.86,North,0,2.5,4.7,46,0.00,,,0.00,WUHU216HW,2013-07-15 19:51:00,
2013-07-15 12:57:00,77.6,55.1,29.86,NE,45,4.9,5.4,46,0.00,,,0.00,WUHU216HW,2013-07-15 19:57:00,
2013-07-15 13:01:00,77.4,54.9,29.86,South,180,0.4,5.4,46,0.00,,,0.00,WUHU216HW,2013-07-15 20:01:00,
2013-07-15 13:07:00,77.6,55.1,29.86,North,0,2.0,6.5,46,0.00,,,0.00,WUHU216HW,2013-07-15 20:07:00,
2013-07-15 13:12:00,78.5,55.9,29.86,SSW,203,1.3,6.5,46,0.00,,,0.00,WUHU216HW,2013-07-15 20:12:00,
2013-07-15 13:17:00,79.2,56.5,29.85,NW,315,1.6,5.1,46,0.00,,,0.00,WUHU216HW,2013-07-15 20:17:00,
2013-07-15 13:22:00,79.6,55.6,29.85,NE,45,2.0,5.6,44,0.00,,,0.00,WUHU216HW,2013-07-15 20:22:00,
2013-07-15 13:27:00,79.9,56.0,29.84,SE,135,1.1,5.6,44,0.00,,,0.00,WUHU216HW,2013-07-15 20:27:00,
2013-07-15 13:32:00,80.6,56.6,29.85,ENE,68,0.9,6.3,44,0.00,,,0.00,WUHU216HW,2013-07-15 20:32:00,
2013-07-15 13:37:00,80.5,55.9,29.84,NW,315,4.0,6.3,43,0.00,,,0.00,WUHU216HW,2013-07-15 20:37:00,
2013-07-15 13:42:00,80.6,56.0,29.84,NE,45,1.8,6.3,43,0.00,,,0.00,WUHU216HW,2013-07-15 20:42:00,
2013-07-15 13:48:00,81.0,56.3,29.84,North,0,3.8,5.1,43,0.00,,,0.00,WUHU216HW,2013-07-15 20:48:00,
2013-07-15 13:53:00,81.5,55.6,29.84,WSW,248,2.5,5.1,41,0.00,,,0.00,WUHU216HW,2013-07-15 20:53:00,
2013-07-15 13:58:00,81.5,55.6,29.84,NNE,23,2.0,4.9,41,0.00,,,0.00,WUHU216HW,2013-07-15 20:58:00,
2013-07-15 14:03:00,81.4,56.1,29.83,NNE,23,1.8,5.1,42,0.00,,,0.00,WUHU216HW,2013-07-15 21:03:00,
2013-07-15 14:08:00,81.9,55.9,29.83,NNE,23,0.9,5.6,41,0.00,,,0.00,WUHU216HW,2013-07-15 21:08:00,
2013-07-15 14:13:00,81.9,54.6,29.83,North,0,6.5,6.5,39,0.00,,,0.00,WUHU216HW,2013-07-15 21:13:00,
2013-07-15 14:19:00,82.4,55.8,29.83,NNW,338,1.6,6.5,40,0.00,,,0.00,WUHU216HW,2013-07-15 21:19:00,
2013-07-15 14:24:00,82.6,53.6,29.83,NE,45,7.6,7.6,37,0.00,,,0.00,WUHU216HW,2013-07-15 21:24:00,
2013-07-15 14:29:00,82.6,54.4,29.83,ENE,68,1.1,7.6,38,0.00,,,0.00,WUHU216HW,2013-07-15 21:29:00,
2013-07-15 14:34:00,82.4,54.2,29.82,North,0,1.3,8.1,38,0.00,,,0.00,WUHU216HW,2013-07-15 21:34:00,
2013-07-15 14:39:00,82.8,52.2,29.82,NNE,23,3.4,8.1,35,0.00,,,0.00,WUHU216HW,2013-07-15 21:39:00,
2013-07-15 14:44:00,82.8,53.7,29.82,WNW,293,1.1,7.6,37,0.00,,,0.00,WUHU216HW,2013-07-15 21:44:00,
2013-07-15 14:49:00,83.0,53.9,29.82,North,0,4.0,6.9,37,0.00,,,0.00,WUHU216HW,2013-07-15 21:49:00,
2013-07-15 14:54:00,83.5,55.2,29.81,North,0,4.9,7.2,38,0.00,,,0.00,WUHU216HW,2013-07-15 21:54:00,
2013-07-15 14:59:00,83.5,52.0,29.81,NNE,23,4.0,7.2,34,0.00,,,0.00,WUHU216HW,2013-07-15 21:59:00,
2013-07-15 15:04:00,83.9,52.4,29.81,NNE,23,4.7,6.9,34,0.00,,,0.00,WUHU216HW,2013-07-15 22:04:00,
2013-07-15 15:11:00,83.9,52.4,29.81,NNE,23,5.1,7.2,34,0.00,,,0.00,WUHU216HW,2013-07-15 22:11:00,
2013-07-15 15:16:00,83.9,53.1,29.81,NE,45,0.7,5.6,35,0.00,,,0.00,WUHU216HW,2013-07-15 22:16:00,
2013-07-15 15:21:00,84.4,53.7,29.81,NNW,338,2.2,7.4,35,0.00,,,0.00,WUHU216HW,2013-07-15 22:21:00,
2013-07-15 15:26:00,84.2,52.7,29.81,NNE,23,3.4,8.5,34,0.00,,,0.00,WUHU216HW,2013-07-15 22:26:00,
2013-07-15 15:31:00,84.4,52.8,29.80,WNW,293,7.8,8.5,34,0.00,,,0.00,WUHU216HW,2013-07-15 22:31:00,
2013-07-15 15:36:00,84.4,55.2,29.80,North,0,1.1,9.8,37,0.00,,,0.00,WUHU216HW,2013-07-15 22:36:00,
2013-07-15 15:42:00,85.1,54.3,29.80,NNE,23,4.9,9.8,35,0.00,,,0.00,WUHU216HW,2013-07-15 22:42:00,
2013-07-15 15:47:00,85.0,53.3,29.79,West,270,4.5,6.9,34,0.00,,,0.00,WUHU216HW,2013-07-15 22:47:00,
2013-07-15 15:52:00,85.1,53.5,29.80,North,0,4.7,7.6,34,0.00,,,0.00,WUHU216HW,2013-07-15 22:52:00,
2013-07-15 15:58:00,85.3,56.0,29.79,WSW,248,0.4,7.6,37,0.00,,,0.00,WUHU216HW,2013-07-15 22:58:00,
2013-07-15 16:03:00,86.0,55.1,29.79,NNE,23,2.2,5.1,35,0.00,,,0.00,WUHU216HW,2013-07-15 23:03:00,
2013-07-15 16:08:00,86.2,54.5,29.78,North,0,3.4,4.7,34,0.00,,,0.00,WUHU216HW,2013-07-15 23:08:00,
2013-07-15 16:13:00,85.9,54.9,29.78,ENE,68,1.8,7.6,35,0.00,,,0.00,WUHU216HW,2013-07-15 23:13:00,
2013-07-15 16:18:00,86.0,55.1,29.78,NNE,23,2.5,7.6,35,0.00,,,0.00,WUHU216HW,2013-07-15 23:18:00,
2013-07-15 16:23:00,86.0,55.1,29.78,North,0,1.8,8.3,35,0.00,,,0.00,WUHU216HW,2013-07-15 23:23:00,
2013-07-15 16:28:00,86.2,54.5,29.78,South,180,1.8,8.3,34,0.00,,,0.00,WUHU216HW,2013-07-15 23:28:00,
2013-07-15 16:33:00,86.4,56.2,29.78,NE,45,1.8,7.4,36,0.00,,,0.00,WUHU216HW,2013-07-15 23:33:00,
2013-07-15 16:39:00,86.0,55.1,29.77,North,0,1.8,7.2,35,0.00,,,0.00,WUHU216HW,2013-07-15 23:39:00,
2013-07-15 16:44:00,86.0,55.1,29.77,NNE,23,2.5,7.2,35,0.00,,,0.00,WUHU216HW,2013-07-15 23:44:00,
2013-07-15 16:49:00,86.2,56.1,29.77,North,0,2.0,5.8,36,0.00,,,0.00,WUHU216HW,2013-07-15 23:49:00,
2013-07-15 16:54:00,86.2,55.3,29.77,West,270,1.8,8.9,35,0.00,,,0.00,WUHU216HW,2013-07-15 23:54:00,
2013-07-15 16:59:00,86.2,54.5,29.76,NNE,23,3.6,8.9,34,0.00,,,0.00,WUHU216HW,2013-07-15 23:59:00,
2013-07-15 17:05:00,86.0,55.1,29.77,SE,135,5.4,7.6,35,0.00,,,0.00,WUHU216HW,2013-07-16 00:05:00,
2013-07-15 17:10:00,86.0,54.3,29.76,North,0,2.2,8.3,34,0.00,,,0.00,WUHU216HW,2013-07-16 00:10:00,
2013-07-15 17:15:00,86.0,54.3,29.76,North,0,2.7,8.3,34,0.00,,,0.00,WUHU216HW,2013-07-16 00:15:00,
2013-07-15 17:20:00,86.2,53.6,29.76,WSW,248,3.1,8.3,33,0.00,,,0.00,WUHU216HW,2013-07-16 00:20:00,
2013-07-15 17:25:00,86.2,54.5,29.76,South,180,5.6,10.7,34,0.00,,,0.00,WUHU216HW,2013-07-16 00:25:00,
2013-07-15 17:31:00,86.4,53.8,29.76,NW,315,3.1,10.7,33,0.00,,,0.00,WUHU216HW,2013-07-16 00:31:00,
2013-07-15 17:36:00,86.9,55.1,29.76,NE,45,1.6,5.1,34,0.00,,,0.00,WUHU216HW,2013-07-16 00:36:00,
2013-07-15 17:41:00,87.1,54.4,29.75,NE,45,6.3,6.3,33,0.00,,,0.00,WUHU216HW,2013-07-16 00:41:00,
2013-07-15 17:46:00,86.9,53.5,29.75,ENE,68,6.9,6.9,32,0.00,,,0.00,WUHU216HW,2013-07-16 00:46:00,
2013-07-15 17:51:00,86.6,53.2,29.75,NNE,23,1.1,6.9,32,0.00,,,0.00,WUHU216HW,2013-07-16 00:51:00,
2013-07-15 17:56:00,86.8,54.1,29.75,NNW,338,2.2,6.9,33,0.00,,,0.00,WUHU216HW,2013-07-16 00:56:00,
2013-07-15 18:01:00,86.8,53.3,29.75,North,0,3.1,4.7,32,0.00,,,0.00,WUHU216HW,2013-07-16 01:01:00,
2013-07-15 18:07:00,86.6,53.9,29.74,North,0,3.4,6.3,33,0.00,,,0.00,WUHU216HW,2013-07-16 01:07:00,
2013-07-15 18:12:00,86.6,53.9,29.74,North,0,2.2,6.9,33,0.00,,,0.00,WUHU216HW,2013-07-16 01:12:00,
2013-07-15 18:17:00,86.6,53.2,29.74,NE,45,1.6,6.9,32,0.00,,,0.00,WUHU216HW,2013-07-16 01:17:00,
2013-07-15 18:22:00,86.4,53.8,29.74,NE,45,2.0,6.0,33,0.00,,,0.00,WUHU216HW,2013-07-16 01:22:00,
2013-07-15 18:28:00,86.4,53.8,29.74,ENE,68,2.9,5.4,33,0.00,,,0.00,WUHU216HW,2013-07-16 01:28:00,
2013-07-15 18:33:00,86.0,53.5,29.74,WSW,248,3.4,6.0,33,0.00,,,0.00,WUHU216HW,2013-07-16 01:33:00,
2013-07-15 18:38:00,86.0,53.5,29.74,NNE,23,2.5,6.0,33,0.00,,,0.00,WUHU216HW,2013-07-16 01:38:00,
2013-07-15 18:43:00,85.9,53.4,29.74,SW,225,2.5,7.4,33,0.00,,,0.00,WUHU216HW,2013-07-16 01:43:00,
2013-07-15 18:48:00,85.7,53.2,29.74,ENE,68,1.1,7.4,33,0.00,,,0.00,WUHU216HW,2013-07-16 01:48:00,
2013-07-15 18:54:00,85.7,53.2,29.73,NNE,23,5.4,9.2,33,0.00,,,0.00,WUHU216HW,2013-07-16 01:54:00,
2013-07-15 18:59:00,85.5,53.8,29.73,NNW,338,3.1,9.2,34,0.00,,,0.00,WUHU216HW,2013-07-16 01:59:00,
2013-07-15 19:04:00,85.3,53.6,29.73,North,0,4.7,6.5,34,0.00,,,0.00,WUHU216HW,2013-07-16 02:04:00,
2013-07-15 19:09:00,85.3,53.6,29.73,North,0,2.5,6.5,34,0.00,,,0.00,WUHU216HW,2013-07-16 02:09:00,
2013-07-15 19:15:00,85.3,54.5,29.74,North,0,5.4,5.6,35,0.00,,,0.00,WUHU216HW,2013-07-16 02:15:00,
2013-07-15 19:20:00,85.1,54.3,29.74,North,0,0.4,6.5,35,0.00,,,0.00,WUHU216HW,2013-07-16 02:20:00,
2013-07-15 19:25:00,85.0,54.1,29.73,NE,45,0.4,4.5,35,0.00,,,0.00,WUHU216HW,2013-07-16 02:25:00,
2013-07-15 19:30:00,84.8,54.7,29.74,NE,45,1.1,4.0,36,0.00,,,0.00,WUHU216HW,2013-07-16 02:30:00,
2013-07-15 19:35:00,84.6,54.5,29.74,NNE,23,1.1,4.7,36,0.00,,,0.00,WUHU216HW,2013-07-16 02:35:00,
2013-07-15 19:40:00,84.4,53.7,29.74,NE,45,3.8,4.7,35,0.00,,,0.00,WUHU216HW,2013-07-16 02:40:00,
2013-07-15 19:46:00,84.2,54.3,29.74,NNE,23,3.1,6.0,36,0.00,,,0.00,WUHU216HW,2013-07-16 02:46:00,
2013-07-15 19:51:00,84.1,54.1,29.74,NNW,338,1.6,7.4,36,0.00,,,0.00,WUHU216HW,2013-07-16 02:51:00,
2013-07-15 19:56:00,83.7,54.5,29.74,North,0,1.6,7.4,37,0.00,,,0.00,WUHU216HW,2013-07-16 02:56:00,
2013-07-15 20:01:00,83.7,54.5,29.74,NNW,338,1.8,4.3,37,0.00,,,0.00,WUHU216HW,2013-07-16 03:01:00,
2013-07-15 20:06:00,83.5,54.4,29.74,North,0,0.4,4.0,37,0.00,,,0.00,WUHU216HW,2013-07-16 03:06:00,
2013-07-15 20:11:00,83.2,54.9,29.74,NE,45,1.1,4.0,38,0.00,,,0.00,WUHU216HW,2013-07-16 03:11:00,
2013-07-15 20:16:00,82.8,54.5,29.74,NNE,23,1.1,2.5,38,0.00,,,0.00,WUHU216HW,2013-07-16 03:16:00,
2013-07-15 20:21:00,82.4,54.2,29.74,NNE,23,0.0,4.0,38,0.00,,,0.00,WUHU216HW,2013-07-16 03:21:00,
2013-07-15 20:27:00,82.4,54.2,29.74,NNW,338,2.9,4.0,38,0.00,,,0.00,WUHU216HW,2013-07-16 03:27:00,
2013-07-15 20:32:00,82.1,54.7,29.74,North,0,0.7,2.9,39,0.00,,,0.00,WUHU216HW,2013-07-16 03:32:00,
2013-07-15 20:37:00,81.7,54.4,29.74,NNW,338,0.4,2.2,39,0.00,,,0.00,WUHU216HW,2013-07-16 03:37:00,
2013-07-15 20:42:00,81.5,54.2,29.74,NNE,23,0.9,2.5,39,0.00,,,0.00,WUHU216HW,2013-07-16 03:42:00,
2013-07-15 20:47:00,81.0,53.7,29.74,West,270,0.2,2.5,39,0.00,,,0.00,WUHU216HW,2013-07-16 03:47:00,
2013-07-15 20:52:00,80.8,54.4,29.74,North,0,1.1,2.5,40,0.00,,,0.00,WUHU216HW,2013-07-16 03:52:00,
2013-07-15 20:57:00,80.5,54.0,29.74,North,0,0.7,2.5,40,0.00,,,0.00,WUHU216HW,2013-07-16 03:57:00,
2013-07-15 21:01:00,80.3,53.8,29.74,NE,45,0.0,2.5,40,0.00,,,0.00,WUHU216HW,2013-07-16 04:01:00,
2013-07-15 21:06:00,79.9,54.2,29.74,North,0,1.8,2.2,41,0.00,,,0.00,WUHU216HW,2013-07-16 04:06:00,
2013-07-15 21:11:00,79.6,53.8,29.74,North,0,1.3,5.6,41,0.00,,,0.00,WUHU216HW,2013-07-16 04:11:00,
2013-07-15 21:16:00,79.4,53.6,29.74,NE,45,0.4,5.6,41,0.00,,,0.00,WUHU216HW,2013-07-16 04:16:00,
2013-07-15 21:21:00,79.2,53.5,29.75,NNE,23,3.6,5.1,41,0.00,,,0.00,WUHU216HW,2013-07-16 04:21:00,
2013-07-15 21:26:00,79.0,53.4,29.75,NNE,23,1.6,6.9,41,0.00,,,0.00,WUHU216HW,2013-07-16 04:26:00,
2013-07-15 21:31:00,78.8,53.2,29.75,NNW,338,1.8,6.9,41,0.00,,,0.00,WUHU216HW,2013-07-16 04:31:00,
2013-07-15 21:36:00,78.5,52.8,29.75,East,90,1.8,3.6,41,0.00,,,0.00,WUHU216HW,2013-07-16 04:36:00,
2013-07-15 21:41:00,78.3,52.7,29.75,NNW,338,2.0,2.5,41,0.00,,,0.00,WUHU216HW,2013-07-16 04:41:00,
2013-07-15 21:46:00,78.1,53.1,29.75,NNW,338,1.1,2.7,42,0.00,,,0.00,WUHU216HW,2013-07-16 04:46:00,
2013-07-15 21:51:00,77.8,52.8,29.75,NNE,23,1.3,4.0,42,0.00,,,0.00,WUHU216HW,2013-07-16 04:51:00,
2013-07-15 21:56:00,77.6,52.0,29.75,North,0,0.7,4.0,41,0.00,,,0.00,WUHU216HW,2013-07-16 04:56:00,
2013-07-15 22:01:00,77.4,51.8,29.75,NW,315,2.2,4.5,41,0.00,,,0.00,WUHU216HW,2013-07-16 05:01:00,
2013-07-15 22:06:00,77.2,51.8,29.75,North,0,1.3,4.5,41,0.00,,,0.00,WUHU216HW,2013-07-16 05:06:00,
2013-07-15 22:11:00,77.0,51.6,29.75,West,270,2.0,2.2,41,0.00,,,0.00,WUHU216HW,2013-07-16 05:11:00,
2013-07-15 22:16:00,76.7,51.2,29.75,NW,315,0.4,2.0,41,0.00,,,0.00,WUHU216HW,2013-07-16 05:16:00,
2013-07-15 22:21:00,76.5,51.0,29.75,NNW,338,0.0,2.0,41,0.00,,,0.00,WUHU216HW,2013-07-16 05:21:00,
2013-07-15 22:26:00,76.3,51.0,29.76,North,0,0.4,2.0,41,0.00,,,0.00,WUHU216HW,2013-07-16 05:26:00,
2013-07-15 22:31:00,76.0,50.6,29.76,North,0,1.3,3.6,41,0.00,,,0.00,WUHU216HW,2013-07-16 05:31:00,
2013-07-15 22:36:00,76.0,50.6,29.76,NNE,23,0.7,4.0,41,0.00,,,0.00,WUHU216HW,2013-07-16 05:36:00,
2013-07-15 22:41:00,75.6,50.9,29.76,NW,315,0.0,4.0,42,0.00,,,0.00,WUHU216HW,2013-07-16 05:41:00,
2013-07-15 22:46:00,75.4,50.1,29.75,North,0,2.5,2.9,41,0.00,,,0.00,WUHU216HW,2013-07-16 05:46:00,
2013-07-15 22:51:00,75.2,50.6,29.76,NNW,338,0.0,2.9,42,0.00,,,0.00,WUHU216HW,2013-07-16 05:51:00,
2013-07-15 22:56:00,75.1,50.4,29.76,North,0,0.2,4.5,42,0.00,,,0.00,WUHU216HW,2013-07-16 05:56:00,
2013-07-15 23:01:00,74.9,50.2,29.76,NW,315,0.9,4.5,42,0.00,,,0.00,WUHU216HW,2013-07-16 06:01:00,
2013-07-15 23:06:00,74.7,50.0,29.76,North,0,0.7,4.5,42,0.00,,,0.00,WUHU216HW,2013-07-16 06:06:00,
2013-07-15 23:11:00,74.5,50.5,29.75,NNW,338,0.4,3.8,43,0.00,,,0.00,WUHU216HW,2013-07-16 06:11:00,
2013-07-15 23:16:00,74.3,50.3,29.75,NNW,338,1.6,2.7,43,0.00,,,0.00,WUHU216HW,2013-07-16 06:16:00,
2013-07-15 23:21:00,74.2,50.1,29.75,East,90,0.9,3.8,43,0.00,,,0.00,WUHU216HW,2013-07-16 06:21:00,
2013-07-15 23:26:00,74.0,50.6,29.75,NE,45,0.4,3.8,44,0.00,,,0.00,WUHU216HW,2013-07-16 06:26:00,
2013-07-15 23:31:00,73.8,50.4,29.75,North,0,2.5,2.5,44,0.00,,,0.00,WUHU216HW,2013-07-16 06:31:00,
2013-07-15 23:36:00,73.8,50.4,29.75,North,0,2.5,2.9,44,0.00,,,0.00,WUHU216HW,2013-07-16 06:36:00,
2013-07-15 23:41:00,73.6,50.2,29.75,NW,315,0.2,2.9,44,0.00,,,0.00,WUHU216HW,2013-07-16 06:41:00,
2013-07-15 23:46:00,73.6,50.2,29.76,North,0,0.9,2.5,44,0.00,,,0.00,WUHU216HW,2013-07-16 06:46:00,
2013-07-15 23:51:00,73.4,50.0,29.76,NNW,338,0.2,2.9,44,0.00,,,0.00,WUHU216HW,2013-07-16 06:51:00,
2013-07-15 23:56:00,73.3,50.0,29.76,NNE,23,1.3,3.4,44,0.00,,,0.00,WUHU216HW,2013-07-16 06:56:00,